Regional Weather Roundup
Issued by NWS

Home | Current Version | Previous Version | Graphics & Text | Print | Product List | Glossary Off
Versions: 1 2 3 4 5 6 7 8 9 10 11 12 13 14 15 16 17 18 19 20 21 22 23 24 25 26 27 28 29 30 31 32 33 34 35 36 37 38 39 40 41 42 43 44 45 46 47 48 49 50

401
ASUS45 KBOU 260807
RWRCO

WEATHER ROUNDUP FOR COLORADO
NATIONAL WEATHER SERVICE DENVER/BOULDER CO
200 AM MDT SUN MAR 26 2017

NOTE: "FAIR" INDICATES FEW OR NO CLOUDS BELOW 12000 FEET WITH NO
SIGNIFICANT WEATHER AND/OR OBSTRUCTIONS TO VISIBILITY.

COZ001>005-013-030-031-260900-
...NORTHWEST COLORADO...

CITY           SKY/WX    TMP DP  RH WIND       PRES   REMARKS
CRAIG          LGT RAIN  42  35  76 W9        29.91S
HAYDEN         CLOUDY    39  34  81 CALM      29.91S
MEEKER         RAIN      41  36  82 NW9       29.91R
MOUNT WERNER   NOT AVBL
STEAMBOAT SPGS CLOUDY    37  36  96 CALM      29.90F
WALDEN         NOT AVBL
$$

COZ006>008-011-260900-
...WEST CENTRAL VALLEYS...

CITY           SKY/WX    TMP DP  RH WIND       PRES   REMARKS
GRAND JUNCTION LGT RAIN  47  37  68 CALM      29.87R
MONTROSE       LGT RAIN  42  40  92 E7        29.92S
EAGLE          CLOUDY    37  32  82 E5        29.93R
RIFLE          CLOUDY    41  35  79 E6        29.89S
DELTA          CLOUDY    47  35  61 NE6       29.89S
NUCLA          DRIZZLE   39  37  93 E7        29.97S
$$

COZ017>023-064>068-260900-
...SOUTHWEST COLORADO...

CITY           SKY/WX    TMP DP  RH WIND       PRES   REMARKS
DURANGO        CLOUDY    36  33  89 SW12      29.91F
CORTEZ         CLOUDY    38  37  97 CALM      29.94F
PAGOSA SPRINGS LGT SNOW  35  35  99 SW7       29.92S WCI  29
TELLURIDE      NOT AVBL
WOLF CREEK PAS SNOW      21  21 100 SW12G22   29.97F VSB 1/2 WCI   9
$$

COZ009-010-012-014-032>034-037-058>063-260900-
...CENTRAL COLORADO...

CITY           SKY/WX    TMP DP  RH WIND       PRES   REMARKS
ASPEN          LGT RAIN  36  35  96 NW3       29.90S
BUENA VISTA    FAIR      38  28  66 NW5       29.87F
COPPER MTN     LGT SNOW  28  23  80 MISG      29.97F
BERTHOUD PASS  HAZE      21  10  63 NW21      29.96F VSB<1/4 WCI   6
COTTONWOOD PAS MOCLDY    36  28  75 SE8       29.91F
GUNNISON       MOCLDY    33  31  92 CALM      29.89F
KREMMLING      CLOUDY    39  36  87 CALM      29.93R
LEADVILLE      CLOUDY    29  25  85 N9        29.91F WCI  20
MONARCH PASS   SNOW      25  23  93 SW8       30.05F VSB 1/4 WCI  16
SALIDA         CLOUDY    42  33  68 SW3       29.93F
SUNLIGHT       CLOUDY    27  27 100 W5        30.01R WCI  21
WILKERSON PASS FAIR      28  25  86 SW3       29.97F
$$

COZ069>075-260900-
...SAN LUIS VALLEY/SANGRE DE CRISTO MOUNTAINS...

CITY           SKY/WX    TMP DP  RH WIND       PRES   REMARKS
ALAMOSA        CLOUDY    37  35  92 E10G21    29.86F
LA VETA PASS   NOT AVBL
SAGUACHE       LGT SNOW  32  32 100 CALM      29.91S
$$

COZ035-036-038>040-260900-
...NORTHERN COLORADO FRONT RANGE...

CITY           SKY/WX    TMP DP  RH WIND       PRES   REMARKS
DENVER INTL AP MOCLDY    47  32  56 W6        29.80F
DMNS CITY PARK   N/A     49  33  54 E9        29.80S
AURORA         CLOUDY    47  32  55 SE6       29.82F
FRONT RANGE AP FAIR      45  34  65 S12G17    29.82S
ERIE MUNI ARPT MOCLDY    46  34  62 CALM      29.80R
BOULDER MUN AP MOCLDY    48  32  53 NW5       29.80R
CENTENNIAL     CLOUDY    46  33  60 SE5       29.81F
BROOMFIELD     FAIR      46  34  61 W7        29.81S
FORT COLLINS   FAIR      47  33  58 N10       29.81S
LONGMONT       MOCLDY    51  32  48 N7        29.82R
$$

COZ041-046-047-076>085-087-088-260900-
...PIKES PEAK/PALMER DIVIDE AND SOUTHERN FOOTHILLS...

CITY           SKY/WX    TMP DP  RH WIND       PRES   REMARKS
COLO. SPRINGS  MOCLDY    38  27  64 N10       29.82F
A. F. ACADEMY  FAIR      33  29  85 N8        29.82F WCI  26
SCHRIEVER AFB  MOCLDY    39  26  59 N9        29.82F
ELLICOTT         N/A    N/A N/A N/A E12       29.79F
FALCON         FAIR      36  23  59 N6        29.84S
FORT CARSON    MOCLDY    40  30  67 N6        29.80F
LIMON          FAIR      35  29  78 SE6       29.82F WCI  30
MONUMENT HILL  FAIR      32  27  80 CALM      29.85F
TRINIDAD       FAIR      44  34  67 W7        29.78R
$$

COZ042>045-048>051-090-091-260900-
...NORTHEAST COLORADO...

CITY           SKY/WX    TMP DP  RH WIND       PRES   REMARKS
GREELEY ARPT   FAIR      41  32  70 N10       29.81S
AKRON          FAIR      43  28  55 S14       29.82F
BURLINGTON     FAIR      40  38  93 SE12      29.82F
WRAY           NOT AVBL
STERLING       MOCLDY    45  32  61 S5        29.81F
HOLYOKE        FAIR      41  37  87 SE6       29.85S
FORT MORGAN    FAIR      43  32  64 SE8       29.81F
$$

COZ086-089-092>099-260900-
...SOUTHEAST COLORADO...

CITY           SKY/WX    TMP DP  RH WIND       PRES   REMARKS
PUEBLO         MOCLDY    44  29  55 N12       29.73F
LA JUNTA       FAIR      46  26  45 E10G21    29.75F
LAMAR          FAIR      42  32  67 E14       29.76F
SPRINGFIELD      N/A     40  25  55 SE13      29.77F
$$




USA.gov is the U.S. government's official web portal to all federal, state and local government web resources and services.